Freeport, IL

8:42 PM CDT on July 25, 2017 (GMT -0500)
Albertus

Weather History for KFEP - January, 2014

Change the Weather History Date:

Friday, January 24, 2014

  Actual Average Record
Temperature  
Mean Temperature 12 °F -  
Max Temperature 31 °F 30 °F 47 °F (1981)
Min Temperature -6 °F 15 °F -14 °F (2008)
Degree Days  
Heating Degree Days 52    
Moisture  
Dew Point 8 °F    
Average Humidity 75    
Maximum Humidity 92    
Minimum Humidity 65    
Precipitation  
Precipitation 0.00 in - - ()
Sea Level Pressure  
Sea Level Pressure 29.92 in    
Wind  
Wind Speed 17 mph (SW)    
Max Wind Speed 28 mph    
Max Gust Speed 37 mph    
Visibility 8 miles    
Events Snow    
Averages and records for this station are not official NWS values.
T = Trace of Precipitation, MM = Missing Value Source: NWS Daily Summary

Daily Weather History Graph

Daily Weather History Graph

Search for Another Location

Airport or City:

Trip Planner

Search our weather history database for the weather conditions in past years. The results will help you decide how hot, cold, wet, or windy it might be!

Date:

Astronomy

Jan. 24, 2014 Rise Set
Actual Time 7:18 AM CST 5:02 PM CST
Civil Twilight 6:48 AM CST 5:32 PM CST
Nautical Twilight 6:14 AM CST 6:06 PM CST
Astronomical Twilight 5:41 AM CST 6:40 PM CST
Moon 12:44 AM CST (1/24) 11:22 AM CST (1/24)
Length of Visible Light 10h 44m
Length of Day
9h 43m
Last Quarter, 44% of the Moon is Illuminated
Jan 24
Last Quarter
Jan 30
New
Feb 6
First Quarter
Feb 14
Full
Feb 22
Last Quarter

Hourly Weather History & Observations

Time (CST) Temp. Windchill Dew Point Humidity Pressure Visibility Wind Dir Wind Speed Gust Speed Precip Events Conditions
12:15 AM -6.7 °F -21.0 °F -12.5 °F 76% 30.50 in 10.0 mi SW 6.9 mph - N/A   Clear
12:35 AM -6.7 °F -22.3 °F -12.3 °F 77% 30.48 in 10.0 mi SW 8.1 mph - N/A   Clear
12:55 AM -5.4 °F -20.8 °F -10.7 °F 78% 30.46 in 10.0 mi SW 8.1 mph - N/A   Clear
1:15 AM -4.2 °F -20.4 °F -9.4 °F 78% 30.45 in 10.0 mi SW 9.2 mph - N/A   Clear
1:35 AM -4.5 °F -21.9 °F -9.8 °F 78% 30.44 in 10.0 mi SW 10.4 mph - N/A   Clear
1:55 AM -5.3 °F -25.4 °F -10.3 °F 79% 30.44 in 10.0 mi SW 13.8 mph - N/A   Clear
2:15 AM -4.4 °F -24.2 °F -9.0 °F 80% 30.42 in 10.0 mi SW 13.8 mph - N/A   Clear
2:35 AM -4.2 °F -24.7 °F -8.5 °F 82% 30.41 in 10.0 mi SW 15.0 mph 21.9 mph N/A   Clear
2:55 AM -3.5 °F -24.5 °F -8.1 °F 80% 30.39 in 10.0 mi SSW 16.1 mph - N/A   Clear
3:15 AM -1.7 °F -22.2 °F -6.3 °F 80% 30.38 in 10.0 mi SSW 16.1 mph - N/A   Clear
3:35 AM -1.7 °F -24.0 °F -6.3 °F 80% 30.36 in 10.0 mi SSW 19.6 mph 24.2 mph N/A   Clear
3:55 AM -0.4 °F -22.3 °F -5.6 °F 79% 30.34 in 10.0 mi SSW 19.6 mph - N/A   Clear
4:15 AM 0.9 °F -19.5 °F -4.9 °F 77% 30.32 in 10.0 mi SSW 17.3 mph 26.5 mph N/A   Clear
4:35 AM 0.9 °F -21.2 °F -5.1 °F 76% 30.31 in 10.0 mi SSW 20.7 mph 27.6 mph N/A   Clear
4:55 AM 1.4 °F -19.4 °F -5.4 °F 73% 30.29 in 10.0 mi SSW 18.4 mph - N/A   Clear
5:15 AM 0.9 °F -20.7 °F -5.3 °F 75% 30.27 in 10.0 mi SSW 19.6 mph - N/A   Clear
5:35 AM 2.1 °F -17.9 °F -5.1 °F 72% 30.26 in 10.0 mi SSW 17.3 mph 24.2 mph N/A   Clear
5:55 AM 3.2 °F -18.6 °F -4.4 °F 71% 30.23 in 10.0 mi SSW 21.9 mph 27.6 mph N/A   Clear
6:15 AM 4.1 °F -18.7 °F -4.4 °F 68% 30.19 in 10.0 mi SSW 25.3 mph 31.1 mph N/A   Clear
6:35 AM 4.6 °F -18.4 °F -3.8 °F 68% 30.16 in 5.0 mi SSW 26.5 mph 36.8 mph N/A   Haze
6:55 AM 4.8 °F -16.9 °F -3.6 °F 68% 30.16 in 5.0 mi SSW 23.0 mph 34.5 mph N/A   Haze
7:15 AM 5.9 °F -16.3 °F -2.7 °F 68% 30.13 in 7.0 mi SSW 25.3 mph 35.7 mph N/A   Clear
7:35 AM 5.9 °F -15.9 °F -2.4 °F 69% 30.11 in 5.0 mi SSW 24.2 mph 35.7 mph N/A   Haze
7:55 AM 5.9 °F -15.9 °F -2.2 °F 69% 30.09 in 7.0 mi SSW 24.2 mph 31.1 mph N/A   Clear
8:15 AM 6.8 °F -15.9 °F -1.3 °F 69% 30.06 in 5.0 mi SSW 27.6 mph 34.5 mph N/A   Haze
8:35 AM 7.5 °F -14.5 °F -0.2 °F 71% 30.05 in 4.0 mi SSW 26.5 mph 33.4 mph N/A   Haze
8:55 AM 8.4 °F -12.1 °F 0.3 °F 70% 30.03 in 4.0 mi SSW 23.0 mph 32.2 mph N/A   Haze
9:15 AM 10.0 °F -10.4 °F 2.1 °F 70% 30.01 in 4.0 mi SSW 24.2 mph - N/A   Haze
9:35 AM 11.1 °F -8.9 °F 3.0 °F 70% 30.01 in 5.0 mi SSW 24.2 mph 32.2 mph N/A   Haze
9:55 AM 11.3 °F -9.1 °F 2.8 °F 69% 29.98 in 3.0 mi SSW 25.3 mph 35.7 mph N/A   Haze
10:15 AM 13.6 °F -6.6 °F 4.8 °F 68% 29.95 in 4.0 mi SSW 27.6 mph 35.7 mph N/A   Haze
10:35 AM 13.6 °F -5.9 °F 4.8 °F 68% 29.95 in 4.0 mi SW 25.3 mph 34.5 mph N/A   Haze
10:55 AM 14.0 °F -3.9 °F 5.2 °F 68% 29.93 in 5.0 mi SSW 20.7 mph 35.7 mph N/A   Haze
11:15 AM 14.9 °F -1.8 °F 6.3 °F 69% 29.91 in 10.0 mi SSW 18.4 mph 29.9 mph N/A   Scattered Clouds
11:35 AM 16.2 °F -1.0 °F 7.5 °F 69% 29.90 in 10.0 mi SW 20.7 mph 26.5 mph N/A   Scattered Clouds
11:55 AM 16.3 °F 0.1 °F 7.5 °F 68% 29.89 in 10.0 mi SW 18.4 mph 26.5 mph N/A   Scattered Clouds
12:15 PM 18.5 °F 0.9 °F 9.3 °F 67% 29.87 in 7.0 mi SW 24.2 mph 29.9 mph N/A   Overcast
12:35 PM 18.5 °F 1.3 °F 9.9 °F 69% 29.84 in 10.0 mi SW 23.0 mph 29.9 mph N/A   Overcast
12:55 PM 18.9 °F 2.5 °F 10.6 °F 70% 29.81 in 10.0 mi SW 20.7 mph 25.3 mph N/A   Overcast
1:15 PM 19.9 °F 4.8 °F 11.3 °F 69% 29.80 in 10.0 mi SW 18.4 mph - N/A   Overcast
1:35 PM 21.2 °F 6.4 °F 12.0 °F 68% 29.78 in 10.0 mi SW 18.4 mph 27.6 mph N/A   Overcast
1:55 PM 21.9 °F 6.9 °F 11.8 °F 65% 29.77 in 10.0 mi WSW 19.6 mph 29.9 mph N/A   Overcast
2:15 PM 22.6 °F 7.9 °F 12.7 °F 66% 29.76 in 10.0 mi WSW 19.6 mph 27.6 mph N/A   Overcast
2:35 PM 23.7 °F 9.7 °F 13.5 °F 65% 29.75 in 10.0 mi SW 18.4 mph 32.2 mph N/A   Mostly Cloudy
2:55 PM 23.7 °F 8.9 °F 14.4 °F 67% 29.74 in 10.0 mi SW 20.7 mph 27.6 mph N/A   Mostly Cloudy
3:15 PM 23.7 °F 10.1 °F 14.7 °F 69% 29.73 in 10.0 mi SW 17.3 mph 24.2 mph N/A   Overcast
3:35 PM 23.9 °F 9.1 °F 14.5 °F 67% 29.71 in 10.0 mi SW 20.7 mph - N/A   Overcast
3:55 PM 24.3 °F 9.3 °F 15.4 °F 69% 29.69 in 10.0 mi SW 21.9 mph 29.9 mph N/A   Overcast
4:15 PM 24.4 °F 10.2 °F 16.3 °F 71% 29.69 in 10.0 mi SW 19.6 mph 27.6 mph N/A   Overcast
4:35 PM 24.8 °F 10.7 °F 16.2 °F 70% 29.69 in 10.0 mi SW 19.6 mph 25.3 mph N/A   Overcast
4:55 PM 25.0 °F 12.6 °F 16.7 °F 71% 29.68 in 10.0 mi SW 15.0 mph 20.7 mph N/A   Overcast
5:15 PM 24.8 °F 12.9 °F 17.2 °F 73% 29.68 in 10.0 mi SW 13.8 mph - N/A   Overcast
5:35 PM 25.2 °F 12.9 °F 16.9 °F 71% 29.68 in 10.0 mi SW 15.0 mph - N/A   Overcast
5:55 PM 26.2 °F 13.8 °F 17.8 °F 70% 29.67 in 10.0 mi SW 16.1 mph - N/A   Overcast
6:15 PM 26.6 °F 13.4 °F 17.6 °F 69% 29.65 in 10.0 mi SW 18.4 mph 24.2 mph N/A   Overcast
6:35 PM 27.5 °F 14.2 °F 18.1 °F 68% 29.63 in 7.0 mi SW 19.6 mph 25.3 mph N/A   Overcast
6:55 PM 27.0 °F 12.8 °F 19.4 °F 73% 29.61 in 7.0 mi SW 21.9 mph 27.6 mph N/A   Overcast
7:15 PM 27.3 °F 12.7 °F 20.3 °F 75% 29.59 in 7.0 mi SW 24.2 mph 33.4 mph N/A   Overcast
7:35 PM 27.5 °F 13.2 °F 20.8 °F 76% 29.58 in 10.0 mi SW 23.0 mph 29.9 mph N/A   Overcast
7:55 PM 28.8 °F 15.5 °F 20.8 °F 72% 29.56 in 10.0 mi SW 20.7 mph 31.1 mph N/A   Overcast
8:15 PM 30.4 °F 17.3 °F 21.0 °F 68% 29.56 in 10.0 mi WSW 21.9 mph 28.8 mph N/A   Overcast
8:35 PM 28.2 °F 14.5 °F 24.3 °F 85% 29.55 in 2.0 mi WSW 21.9 mph 29.9 mph N/A Snow Light Snow
8:55 PM 27.3 °F 13.6 °F 24.6 °F 90% 29.53 in 2.0 mi SW 20.7 mph 27.6 mph N/A Snow Light Snow
9:15 PM 27.9 °F 15.1 °F 25.5 °F 91% 29.52 in 2.0 mi SW 18.4 mph 25.3 mph N/A Snow Light Snow
9:35 PM 28.8 °F 16.2 °F 26.4 °F 91% 29.52 in 2.5 mi WSW 18.4 mph 25.3 mph N/A Snow Light Snow
9:55 PM 28.8 °F 16.2 °F 26.6 °F 92% 29.50 in 2.0 mi WSW 18.4 mph 24.2 mph N/A Snow Light Snow
10:15 PM 29.7 °F 17.8 °F 27.3 °F 91% 29.49 in 3.0 mi WSW 17.3 mph 24.2 mph N/A Snow Light Snow
10:35 PM 31.3 °F 19.5 °F 29.3 °F 92% 29.48 in 3.0 mi WSW 18.4 mph 25.3 mph N/A Snow Light Snow
10:55 PM 31.5 °F 19.1 °F 29.1 °F 91% 29.47 in 3.0 mi WSW 20.7 mph 31.1 mph N/A Snow Light Snow
11:15 PM 31.5 °F 19.8 °F 29.3 °F 92% 29.47 in 2.5 mi WSW 18.4 mph 25.3 mph N/A Snow Light Snow
11:35 PM 31.5 °F 19.4 °F 29.3 °F 92% 29.46 in 4.0 mi WSW 19.6 mph 25.3 mph N/A   Overcast
11:55 PM 31.6 °F 20.4 °F 29.7 °F 92% 29.45 in 7.0 mi WSW 17.3 mph 21.9 mph N/A   Overcast